GEFSMA_500_meanwind_096.txt.gz
Wind_Speed
35 33 33 33 32 31 31 30 29 28 27 27 26 25 24 24 24 23 23 23 24 24 24 24 23 23 22 21 21 20 20 19 18 17 16 16 16 15 15 15 14 13 12
36 35 35 35 35 34 33 33 31 29 28 28 27 26 25 25 24 23 23 23 24 24 25 25 25 24 24 23 23 22 22 22 21 20 19 18 18 17 17 17 16 15 14
39 37 36 36 37 37 36 34 32 32 30 29 27 26 25 25 24 24 23 23 23 23 23 24 24 24 24 24 23 23 23 23 23 23 22 21 20 19 19 19 18 17 16
40 39 37 36 37 37 36 34 33 32 32 30 29 28 26 26 25 24 24 23 22 21 22 22 23 23 22 23 24 24 25 24 24 25 25 24 23 22 21 20 20 19 18
41 39 39 37 36 36 36 34 33 33 32 31 30 29 27 27 26 24 23 23 22 21 21 21 22 22 22 22 22 23 24 24 24 25 26 26 26 25 25 23 22 21 20
42 41 39 38 37 36 35 34 34 33 32 33 33 30 29 28 27 25 24 23 23 22 21 20 21 22 22 22 22 22 23 24 25 25 26 27 28 28 28 27 25 24 23
40 38 37 36 36 35 35 35 35 34 33 33 32 30 30 29 28 26 25 23 22 22 22 21 21 21 21 22 22 22 22 23 23 25 25 27 27 28 29 29 28 27 26
38 37 34 33 34 34 33 35 36 36 34 33 32 31 30 29 28 27 26 25 24 23 23 22 21 21 21 20 21 22 22 22 22 23 24 26 28 29 30 30 29 29 28
37 35 33 31 31 32 33 34 34 35 35 34 33 32 31 30 29 28 28 26 26 25 24 23 21 21 20 20 20 21 21 21 22 22 23 24 25 27 29 31 30 30 30
38 36 34 33 31 31 33 34 34 34 34 33 34 34 32 31 31 29 29 28 27 26 25 23 22 21 20 19 20 20 20 20 20 21 21 22 23 25 25 27 29 29 29
40 37 36 35 34 33 32 33 34 34 34 34 35 35 35 34 33 31 29 30 29 28 27 25 24 22 21 19 18 19 20 20 19 20 21 21 22 23 24 25 26 28 28
40 39 38 38 37 36 35 34 34 36 37 37 36 35 35 36 35 34 32 32 30 29 28 27 25 24 23 21 19 19 19 18 18 18 19 19 20 21 23 23 23 24 26
41 41 39 38 39 38 38 37 36 37 38 38 37 37 36 36 36 35 35 34 32 31 30 29 28 26 25 23 21 20 20 19 17 17 18 18 18 19 21 22 23 23 24
43 44 43 41 41 40 40 39 38 39 39 39 40 40 39 38 37 37 36 35 34 33 32 31 30 29 27 25 24 22 22 21 19 18 17 17 18 18 19 20 21 22 23
46 46 46 45 45 44 43 43 43 43 43 43 43 43 42 41 40 39 39 38 37 36 34 34 33 32 30 28 27 25 23 23 22 20 19 19 18 18 18 19 19 20 21
49 49 49 48 47 47 47 48 47 46 47 48 48 47 46 45 44 43 42 41 40 39 38 37 36 34 33 31 30 28 26 25 24 23 22 21 20 19 19 19 19 19 20
50 50 50 50 50 50 50 50 50 50 51 51 52 51 50 49 48 46 45 45 44 42 41 40 39 37 36 34 33 32 30 28 26 25 25 23 22 21 21 20 20 20 20
50 51 51 51 51 51 52 53 53 54 54 54 55 56 55 54 53 51 49 48 47 46 45 43 41 40 39 37 36 35 34 31 29 28 27 25 24 24 23 22 21 20 20
49 50 50 51 51 51 52 54 55 55 57 57 57 58 58 58 57 56 54 52 50 49 48 47 45 43 42 41 39 38 37 35 33 31 29 28 26 25 24 23 22 21 21
45 45 47 49 49 50 51 53 54 55 57 58 58 59 60 60 59 59 58 56 54 53 51 49 48 47 45 43 42 40 39 38 37 36 33 31 29 28 26 25 25 24 23
41 42 44 44 46 47 48 51 53 54 56 57 58 59 60 61 61 61 60 59 58 57 55 52 50 50 48 46 44 44 41 40 39 38 37 35 33 31 29 28 27 26 25
39 39 40 40 41 43 45 47 50 51 53 54 55 57 59 60 61 61 61 61 60 59 58 56 54 53 51 49 48 46 45 43 41 40 39 38 36 34 33 31 30 29 28
37 36 35 35 35 38 40 42 45 48 50 52 53 55 58 58 59 60 60 61 61 60 59 58 56 55 54 52 50 49 47 46 44 42 41 40 39 37 35 33 32 31 30
31 30 30 30 30 31 33 35 38 42 44 46 48 51 54 56 57 57 58 60 60 60 60 59 57 56 55 55 53 51 49 48 46 45 43 41 40 39 37 35 34 33 32
27 26 25 24 25 26 28 29 31 35 38 40 42 44 47 50 53 54 56 56 58 59 59 58 57 57 56 55 54 52 51 49 47 46 45 43 41 40 38 37 35 34 34
23 21 20 19 19 20 22 24 25 28 31 35 37 40 41 44 47 49 50 52 54 55 56 56 56 56 56 55 53 52 51 49 48 46 45 43 42 41 39 38 37 36 35

GEFSMA_500_meanwind_102.txt.gz
Wind_Speed
28 27 26 26 25 26 25 26 26 26 26 26 25 24 25 25 25 23 23 22 22 23 23 23 23 22 21 20 19 18 17 16 15 15 15 14 14 14 13 13 13 12 11
28 29 29 28 27 26 26 26 27 28 29 29 28 26 26 26 26 25 24 23 23 23 24 24 25 24 23 22 21 20 20 19 17 17 16 16 16 15 15 15 15 14 13
29 31 30 29 27 27 27 27 28 29 29 29 29 28 28 26 26 26 25 24 24 24 24 24 25 25 25 25 24 23 22 21 20 19 19 18 18 18 17 16 16 15 15
33 32 31 30 29 28 27 27 29 29 28 29 30 30 29 28 27 27 26 25 25 24 24 24 25 26 26 25 25 25 24 23 22 21 21 20 20 19 19 18 17 17 16
36 35 34 32 32 30 29 29 29 29 30 30 30 29 28 28 28 28 28 27 26 25 25 25 26 26 26 26 26 27 26 25 24 24 23 22 22 21 21 21 20 19 18
37 36 35 34 33 32 31 29 29 29 30 30 31 29 28 29 29 28 28 29 28 27 26 25 25 26 26 26 27 27 27 27 26 26 25 24 24 24 23 23 22 21 20
38 37 36 35 34 33 31 30 29 28 29 29 30 30 30 30 29 29 28 29 29 28 28 27 25 26 26 26 26 27 27 27 26 26 25 25 25 26 25 25 24 24 23
38 38 37 36 34 33 31 30 30 29 29 29 30 30 30 30 30 29 28 28 29 29 29 28 26 26 26 26 26 27 26 26 26 26 26 25 26 26 26 26 26 26 25
39 38 37 36 35 34 32 31 31 30 29 31 31 31 31 30 31 31 30 29 30 30 30 29 28 27 26 26 26 26 26 26 26 26 26 26 26 26 26 27 27 27 27
39 38 37 36 35 34 33 32 32 30 31 32 32 32 31 30 31 32 32 32 32 31 30 29 29 28 27 26 25 25 25 26 26 26 25 24 25 25 26 27 27 28 28
39 38 38 37 36 35 34 33 33 32 31 31 32 32 32 32 31 32 32 33 33 32 32 30 30 28 27 27 25 25 25 24 25 25 25 24 24 25 25 25 26 27 28
39 39 39 38 37 36 35 35 34 33 33 32 32 32 33 32 31 33 33 33 34 34 33 32 30 29 28 28 26 26 26 25 25 25 25 24 24 24 24 24 24 25 26
40 40 40 40 39 39 38 36 36 35 35 34 34 34 34 33 34 34 34 35 35 35 34 33 32 30 29 29 28 27 26 25 25 25 26 24 24 24 23 23 22 23 24
41 41 41 41 41 41 40 39 38 37 37 36 35 36 36 36 36 35 35 36 36 35 35 35 34 33 32 30 30 29 28 26 26 26 25 24 23 23 22 22 22 23 24
41 41 41 41 42 42 42 41 40 39 38 38 37 37 38 39 38 38 37 37 37 36 36 36 36 35 34 33 32 30 29 28 26 26 25 24 23 22 22 21 20 21 22
41 42 42 42 42 42 43 43 41 41 40 40 39 39 39 40 40 39 40 40 39 38 38 37 37 36 36 35 34 32 31 29 28 26 25 24 24 23 22 21 19 19 20
42 43 43 42 42 42 43 44 44 44 43 43 42 41 42 41 41 41 43 42 41 41 41 40 40 38 38 37 36 35 33 32 30 28 27 26 25 24 23 22 20 19 19
41 41 42 42 43 44 45 45 45 46 46 46 46 45 45 44 44 44 45 44 43 42 42 42 42 40 39 39 39 37 36 34 33 30 29 28 27 26 24 23 22 21 20
40 40 40 41 41 43 45 46 47 47 48 48 49 49 49 49 48 48 47 47 46 45 45 44 43 42 41 41 41 40 38 36 35 33 31 30 28 27 26 25 23 22 21
37 37 38 38 39 40 42 44 45 47 49 50 51 51 52 52 51 52 51 50 50 49 48 48 46 45 44 43 43 41 40 39 37 35 34 32 30 28 27 26 25 24 22
35 34 34 35 37 37 38 40 43 45 47 50 51 53 54 54 54 55 55 53 52 52 52 51 50 49 48 46 45 43 42 41 40 38 36 35 33 31 29 28 27 26 25
32 31 31 32 33 34 35 37 40 42 45 48 50 52 54 55 55 56 56 56 56 55 54 54 54 53 51 49 47 46 45 44 43 41 40 38 36 34 32 31 29 28 27
29 29 29 29 30 31 32 33 35 37 41 44 46 49 51 54 55 56 56 57 57 57 57 56 56 55 54 52 50 48 47 46 45 44 43 41 39 37 35 34 32 30 29
27 27 27 26 26 26 27 29 31 32 35 39 42 46 48 51 54 55 56 57 57 57 58 58 57 57 56 54 52 50 49 48 48 46 45 43 42 40 38 36 34 33 32
25 24 23 22 21 21 22 24 25 27 29 33 37 40 42 46 50 52 53 55 56 57 59 59 58 58 57 56 54 53 51 50 49 48 46 44 43 42 40 39 37 36 34
23 21 19 18 16 16 16 18 20 22 24 27 31 34 37 40 45 49 51 52 53 55 56 57 58 58 57 57 56 53 51 51 50 48 48 47 45 44 43 41 39 38 36

GEFSMA_500_meanwind_108.txt.gz
Wind_Speed
26 27 27 27 27 27 25 24 25 25 25 26 25 25 25 24 22 22 23 22 22 21 21 21 22 22 22 21 20 19 18 17 16 16 16 16 15 14 13 12 12 11 11
29 28 29 28 27 25 25 25 25 25 25 27 27 26 26 26 25 24 24 25 24 24 23 23 24 24 24 24 23 22 21 20 19 18 18 17 16 16 15 14 13 13 12
29 28 29 29 28 27 26 26 26 26 26 28 28 27 27 28 27 27 27 27 26 26 25 25 26 26 26 26 25 24 24 23 21 20 19 19 18 17 16 16 15 15 14
30 29 30 30 29 28 28 27 26 27 28 28 28 28 27 29 28 29 29 28 28 28 28 27 27 27 28 27 27 27 26 25 24 23 21 20 20 19 18 17 17 16 15
28 29 30 30 30 29 28 28 28 28 28 29 29 29 29 30 30 30 30 30 29 30 30 29 29 28 28 28 29 30 29 28 27 25 24 22 21 21 20 19 18 18 17
30 31 31 31 31 30 30 30 30 30 29 29 30 30 31 31 31 30 30 30 30 31 31 31 31 30 28 30 30 30 31 31 29 27 26 25 23 23 22 21 20 20 19
34 33 33 32 33 32 32 32 32 32 31 31 31 31 32 33 32 31 31 31 31 32 32 32 32 31 29 30 31 31 31 31 30 29 28 26 25 24 24 23 22 22 21
35 35 35 34 34 34 34 34 34 34 33 33 32 32 32 32 33 33 33 33 32 33 33 33 33 32 31 31 30 31 31 31 31 30 30 28 27 26 26 25 25 24 23
35 36 36 36 36 36 36 36 36 35 34 34 33 33 33 33 33 33 33 33 34 34 34 34 34 35 34 33 32 32 32 31 31 31 30 30 28 28 27 27 26 26 25
36 36 36 36 37 37 37 37 37 36 35 35 34 34 34 34 34 34 34 34 35 35 35 35 36 35 36 34 33 33 33 33 32 32 31 30 30 29 28 27 27 27 27
36 36 36 36 36 37 37 37 37 37 36 36 36 35 35 35 35 35 34 35 36 35 36 37 37 37 37 36 35 34 33 33 33 32 32 31 30 30 28 27 27 27 28
37 36 36 37 37 37 38 38 38 38 38 37 37 36 36 37 37 37 36 36 36 36 37 38 38 38 38 37 37 36 34 34 35 34 32 31 30 30 29 28 28 27 28
37 37 37 37 38 38 39 39 40 39 39 39 38 38 38 38 39 38 37 37 37 38 38 39 39 39 39 39 37 37 35 35 35 34 33 32 31 30 30 29 28 28 28
38 39 39 39 39 39 40 40 41 41 41 41 40 39 39 39 40 40 39 39 38 39 39 39 40 40 41 40 39 38 37 35 35 34 33 33 32 31 30 30 29 28 27
38 38 40 40 41 41 41 42 42 42 42 42 42 41 40 39 40 41 41 41 39 39 39 40 39 39 40 41 40 39 38 37 36 35 33 33 32 31 30 30 29 28 27
38 38 39 40 41 41 42 42 43 44 44 44 44 43 42 41 42 42 42 42 41 40 40 40 41 41 42 42 41 40 39 39 37 35 34 32 32 31 31 30 29 29 28
36 37 38 38 39 40 41 41 43 44 44 44 45 45 43 42 42 43 43 43 42 41 41 41 41 42 43 43 43 42 41 40 38 36 35 33 32 32 31 30 29 29 28
37 37 37 37 38 38 39 39 40 42 43 44 45 45 45 44 44 43 43 43 44 43 42 42 43 43 43 43 44 43 42 40 39 38 36 35 33 32 31 30 30 29 28
36 36 36 36 36 36 37 38 39 40 42 43 45 46 46 46 45 45 45 45 44 44 44 44 44 44 45 45 45 44 43 42 40 39 38 36 35 34 33 32 30 29 28
34 34 33 33 32 33 35 36 38 39 41 42 44 45 46 46 46 46 47 47 47 46 46 45 45 46 46 47 46 45 45 44 43 41 40 38 37 35 34 33 32 30 29
33 32 30 30 30 30 31 33 34 37 38 40 42 43 45 46 47 48 48 49 50 49 48 48 47 48 48 48 48 46 46 45 45 43 41 39 38 37 35 34 33 32 31
31 30 29 28 27 27 28 30 31 34 36 38 40 42 45 46 47 49 49 50 51 50 51 50 49 47 49 48 48 48 48 47 45 44 43 41 40 38 37 36 35 34 32
30 29 27 26 25 25 25 26 28 30 32 35 38 41 44 46 47 48 49 50 51 51 52 52 52 50 50 50 49 49 48 48 47 46 45 43 42 41 39 38 37 36 35
29 28 26 25 25 24 23 23 24 26 28 31 34 37 41 43 47 49 49 50 50 52 52 53 54 53 53 53 52 50 50 50 50 50 48 46 44 43 42 40 39 37 36
28 27 25 24 23 22 21 20 20 22 25 27 30 33 36 40 43 47 48 49 50 52 53 53 54 55 55 54 54 53 52 51 50 51 50 49 47 45 44 43 42 40 38
29 26 25 23 22 21 20 19 19 19 21 24 27 30 33 36 40 43 45 47 49 50 52 53 54 55 56 55 56 55 54 52 51 51 50 50 50 48 46 45 44 42 41

GEFSMA_500_meanwind_114.txt.gz
Wind_Speed
25 26 25 26 27 26 26 26 25 25 24 24 23 22 23 23 25 25 24 23 25 26 25 25 24 24 25 24 22 21 20 19 18 18 18 17 16 15 14 13 13 12 11
25 28 29 29 27 27 29 29 29 27 26 25 24 23 23 24 25 26 26 26 26 27 27 27 26 26 26 26 25 24 23 22 21 20 20 19 18 17 16 15 14 13 12
25 26 27 29 30 30 31 31 31 31 29 28 26 25 24 24 26 27 27 28 29 29 29 29 28 29 28 28 28 28 26 25 23 23 22 21 20 19 18 16 15 14 14
25 26 27 27 29 30 31 32 32 31 30 29 27 27 27 25 26 27 28 29 31 32 31 31 31 31 31 30 30 30 29 28 26 25 24 23 22 21 19 18 17 16 15
26 26 27 27 29 29 29 30 32 31 31 30 30 29 29 28 27 28 30 31 32 33 33 33 33 33 33 33 33 32 32 31 29 28 27 26 24 23 22 21 19 18 17
27 27 28 28 28 29 29 30 30 31 31 31 31 31 30 29 28 28 28 31 33 33 34 34 35 34 34 34 34 34 34 34 33 31 30 28 27 25 24 23 21 20 19
27 28 28 29 29 30 30 30 31 31 32 33 33 33 32 32 30 29 29 31 32 33 34 35 35 36 36 36 36 36 35 35 35 35 33 31 29 28 26 25 23 22 21
28 29 30 31 31 32 32 33 33 34 34 35 34 34 34 34 33 31 32 33 33 35 35 36 36 37 38 38 37 36 37 36 36 37 36 34 32 31 29 27 26 24 23
29 29 30 31 32 33 34 35 35 35 36 36 36 36 36 35 35 34 34 35 35 36 36 37 37 38 39 38 39 38 37 37 36 36 38 36 34 33 31 30 28 26 25
29 30 30 31 32 34 34 35 36 37 37 38 38 38 37 37 38 37 36 37 37 38 37 37 38 39 40 40 38 38 38 37 38 36 38 39 37 35 33 32 30 29 27
30 30 31 32 33 34 35 36 36 37 38 38 39 39 39 39 39 39 38 38 38 39 39 38 38 40 40 40 40 39 39 39 39 39 37 39 39 38 36 34 32 30 29
31 31 32 33 34 35 36 37 37 38 38 39 40 40 40 40 40 40 40 40 40 40 41 39 39 41 41 42 42 40 40 40 40 40 38 39 41 40 38 36 34 32 31
31 32 33 33 34 35 36 36 37 38 39 40 41 41 41 41 41 41 41 41 40 41 41 41 40 41 42 42 42 41 41 41 41 41 40 40 41 40 39 38 36 34 33
31 32 33 33 34 35 35 37 38 39 40 41 41 42 42 42 43 43 42 42 42 42 42 42 42 42 42 42 41 41 43 43 42 41 41 40 39 40 40 39 37 36 34
31 31 32 33 34 35 36 37 38 40 41 42 43 43 44 44 44 44 44 43 43 43 43 43 43 43 43 43 43 42 43 45 44 43 42 41 40 40 40 39 37 36 35
30 30 31 32 33 34 36 37 39 40 41 43 44 45 45 45 45 45 46 45 44 44 43 44 45 45 45 45 44 43 43 44 45 45 44 43 41 41 40 39 38 36 35
30 30 31 32 33 33 34 36 37 39 41 42 44 45 46 46 47 46 46 47 46 45 45 44 44 45 45 46 45 45 45 45 45 45 44 43 43 42 41 40 39 38 36
30 31 31 32 32 33 34 35 36 37 39 41 43 44 45 46 46 47 47 47 47 46 45 45 45 46 46 46 47 46 46 46 45 46 45 44 44 43 42 41 40 38 36
31 31 31 31 32 32 32 33 34 36 37 39 40 42 43 45 46 47 48 48 48 47 46 46 46 46 46 47 47 47 47 46 46 46 47 46 45 44 43 42 41 39 37
31 31 31 31 31 30 30 30 31 32 34 36 38 40 41 43 44 45 47 47 48 48 47 46 47 47 46 46 46 45 47 47 47 47 48 47 46 45 45 43 42 40 38
31 31 30 30 29 29 28 28 28 29 30 32 34 37 39 41 42 44 45 47 47 47 47 46 46 46 46 46 46 45 46 46 47 48 48 48 47 47 46 44 42 41 39
31 30 29 28 28 28 27 27 26 27 27 29 30 33 36 38 40 42 43 45 46 47 47 47 46 46 46 47 47 46 46 47 47 48 49 49 49 47 46 45 43 42 40
30 29 28 28 27 26 25 25 25 25 25 26 28 30 33 35 37 39 42 44 45 46 47 46 47 46 46 47 47 47 46 46 47 48 50 50 50 49 47 46 44 43 42
30 29 28 27 25 24 24 24 23 22 22 23 25 26 29 31 34 37 39 42 44 46 46 47 47 47 48 47 48 48 47 46 47 48 49 50 50 50 48 47 45 44 42
29 28 28 26 25 24 24 22 21 20 20 20 21 24 26 29 30 33 37 39 42 44 46 47 47 48 49 48 48 48 47 47 48 49 48 49 49 50 49 48 46 45 43
29 28 27 26 25 24 23 21 20 18 17 18 19 20 22 25 28 30 32 36 39 42 44 46 47 48 49 49 49 48 48 47 49 50 50 50 49 50 50 49 47 46 45

GEFSMA_500_meanwind_120.txt.gz
Wind_Speed
22 22 23 24 25 24 24 25 26 26 25 23 23 23 23 23 23 22 22 21 20 20 20 21 21 21 19 19 19 18 18 16 16 15 14 14 13 12 12 11 10 9 9
24 23 23 24 24 24 24 25 26 26 27 26 24 24 25 25 25 24 23 23 23 23 23 23 23 23 22 21 21 21 20 19 18 17 16 16 15 14 13 12 11 10 10
22 23 23 23 24 24 25 26 27 27 27 27 27 26 26 26 26 25 25 24 25 25 26 25 25 25 25 24 23 23 23 22 21 20 19 18 17 16 15 14 13 12 11
22 22 22 22 23 25 26 26 27 27 26 26 27 27 28 28 28 28 27 27 27 27 28 28 28 27 27 27 25 26 26 24 23 22 21 20 19 18 17 16 15 14 13
22 22 22 23 24 24 24 25 26 27 27 28 28 28 29 30 29 29 28 27 27 28 29 30 30 29 29 28 27 27 28 27 26 25 24 23 21 20 19 18 17 16 15
23 24 24 25 25 25 25 25 26 28 28 27 28 28 28 29 30 30 29 28 27 28 29 31 31 31 31 30 29 29 29 29 29 28 27 25 24 23 22 21 20 18 17
24 25 25 25 26 26 26 27 27 28 28 28 28 29 29 30 30 30 30 29 29 30 30 31 32 32 32 32 32 31 31 31 31 30 30 28 27 26 25 23 22 21 19
24 24 25 25 26 27 27 28 28 29 29 29 29 30 31 30 31 31 31 31 30 31 31 32 33 33 34 34 34 33 33 33 33 32 31 31 29 28 27 26 25 24 22
24 24 24 25 26 27 28 28 29 30 30 31 31 31 31 32 32 33 33 33 32 32 32 33 33 34 34 34 34 34 34 35 35 34 33 33 32 31 30 29 28 26 25
22 23 24 25 26 27 28 29 30 31 32 33 33 33 33 33 33 34 34 34 34 34 34 34 34 35 35 35 35 34 34 35 36 37 36 35 34 34 33 31 30 29 27
23 24 25 26 27 28 29 30 31 32 33 34 35 35 36 36 35 35 35 35 36 36 35 35 35 36 36 36 37 36 35 35 37 38 38 37 37 36 35 34 33 32 30
24 24 25 26 27 28 29 30 32 32 33 34 35 36 36 37 38 38 37 36 37 37 37 37 37 37 37 37 37 37 37 37 37 38 39 39 39 38 37 36 36 34 32
25 25 25 26 27 28 29 30 31 32 33 35 36 37 38 38 38 39 39 39 38 39 39 38 38 38 38 38 38 38 38 38 38 39 39 39 39 39 38 37 38 37 35
25 25 25 26 27 27 28 30 31 32 33 34 36 37 38 39 40 40 40 40 40 40 40 39 39 39 40 39 38 38 39 38 38 39 40 39 39 40 40 39 39 39 38
24 25 26 26 27 27 28 29 31 32 33 35 36 37 38 40 41 41 41 41 41 41 41 41 40 39 40 40 40 40 40 39 38 39 40 40 40 40 40 40 40 40 39
25 25 26 27 28 29 30 31 32 33 34 35 36 37 38 39 41 42 43 43 43 43 42 42 42 40 40 41 42 41 41 41 41 40 40 40 40 40 41 41 40 39 40
25 26 27 28 29 30 30 31 32 33 34 35 36 37 38 39 40 42 43 44 44 44 43 43 44 43 42 41 42 42 41 42 42 42 42 42 40 40 41 41 41 40 39
26 27 28 28 29 29 30 30 31 32 33 34 35 36 38 39 40 42 43 44 45 45 45 44 45 45 44 44 44 43 44 43 43 43 42 43 42 41 41 41 41 41 40
27 28 28 28 29 29 29 30 30 31 32 33 34 35 36 37 38 40 42 43 44 45 45 45 45 46 46 45 45 45 45 44 43 44 44 43 43 42 42 42 41 41 40
27 28 28 29 29 29 29 30 30 31 31 31 32 33 34 36 37 38 40 42 42 43 45 45 45 45 45 45 46 45 45 45 44 44 44 44 44 43 43 43 42 41 40
28 29 29 30 30 30 30 30 30 30 30 30 30 31 31 33 34 36 37 39 41 42 43 43 44 44 44 45 45 44 45 45 45 44 44 44 44 44 44 44 43 42 41
29 30 30 30 30 30 29 29 29 29 29 29 28 28 29 30 31 33 35 37 38 39 40 42 42 42 43 45 45 44 45 44 44 45 45 44 44 45 45 44 44 43 42
30 30 30 30 30 30 29 29 29 28 27 27 27 27 28 28 29 31 32 34 36 37 38 39 40 41 42 43 44 44 45 45 44 43 44 43 44 45 45 44 44 43 43
30 31 31 30 30 29 29 29 28 27 26 26 26 26 26 26 28 29 30 32 34 35 36 37 39 40 42 43 43 43 44 44 44 44 44 44 43 43 44 44 45 45 44
31 31 31 30 30 29 29 29 28 26 25 24 24 23 23 24 25 26 28 30 31 33 35 36 37 38 40 41 42 44 44 44 44 44 44 44 43 43 44 45 45 45 45
31 31 31 30 29 29 29 29 27 26 24 23 22 21 22 22 23 24 25 27 28 30 32 34 36 37 39 40 41 42 44 44 44 44 44 44 43 43 43 44 45 45 45

GEFSMA_500_meanwind_126.txt.gz
Wind_Speed
19 19 20 20 20 20 21 22 22 23 24 24 24 23 21 20 20 20 20 20 19 18 17 17 17 18 18 18 17 17 16 15 15 15 14 14 13 12 11 10 9 8 8
19 19 18 19 19 20 21 21 22 22 23 24 24 24 23 21 21 21 21 20 20 20 19 20 19 19 19 20 20 19 18 17 17 16 16 15 15 14 12 12 11 10 9
19 18 18 18 18 19 20 21 22 22 23 25 26 25 25 24 24 23 22 22 22 22 21 21 21 22 21 21 22 21 21 20 19 18 17 17 16 16 15 14 13 12 11
18 18 18 18 18 19 19 20 22 22 24 25 27 27 27 26 26 26 25 24 23 23 23 23 23 23 24 23 23 23 23 23 22 21 20 19 18 18 17 16 15 13 12
18 18 18 19 20 19 20 21 21 22 24 25 27 28 29 29 27 27 27 27 26 25 25 25 25 25 26 26 26 25 25 24 24 24 23 22 21 20 19 18 17 16 15
18 19 19 20 20 20 20 21 21 21 23 25 26 27 29 29 29 28 28 29 29 28 27 26 26 27 28 28 28 27 27 26 26 27 26 24 23 22 22 20 19 18 17
18 19 19 20 20 20 21 21 21 22 24 24 25 27 28 29 31 31 29 29 29 30 29 29 28 28 29 31 31 30 29 28 27 29 29 27 26 25 24 23 22 20 19
18 19 19 19 20 20 21 22 23 23 24 25 25 26 27 29 30 31 31 30 30 31 31 31 31 30 30 32 33 33 32 31 30 31 30 30 29 29 27 26 25 24 22
18 18 19 19 20 20 21 22 23 24 25 25 26 26 27 28 29 30 31 32 32 32 33 33 32 32 32 32 34 34 34 34 33 33 33 32 32 31 30 29 28 26 25
17 18 18 19 20 21 21 22 23 24 25 26 26 27 28 28 29 31 32 33 33 33 33 34 34 33 34 35 35 36 36 37 36 36 35 35 34 33 33 32 31 29 28
16 17 18 19 20 21 22 22 23 24 25 26 27 28 29 30 31 32 33 33 34 34 35 35 35 35 36 36 37 37 38 38 38 39 38 37 36 36 35 35 34 32 31
16 17 18 18 19 21 22 22 23 24 25 26 27 28 30 31 32 33 34 35 36 36 36 36 37 37 38 39 38 39 39 39 39 40 40 39 39 37 37 37 36 35 34
17 17 18 19 19 20 22 22 23 24 25 26 27 28 29 31 32 33 34 36 38 38 38 38 38 39 39 40 40 40 40 41 41 41 42 42 41 40 39 39 38 37 36
17 18 18 19 20 20 21 22 23 25 26 27 28 29 30 31 32 33 35 36 37 39 39 39 40 40 40 41 42 42 42 43 43 43 43 43 43 42 42 41 40 39 38
18 18 18 19 20 20 22 23 23 25 26 27 29 30 31 32 34 35 36 37 37 38 39 41 42 42 42 42 42 43 43 44 44 44 44 43 44 43 43 43 42 41 41
19 19 19 20 21 21 22 23 24 25 26 27 28 30 31 33 34 35 37 38 38 39 39 41 42 43 43 43 43 43 44 44 44 45 45 45 45 44 43 43 42 42 43
19 20 20 21 21 22 23 24 24 25 26 27 28 30 31 33 34 36 38 39 40 40 40 41 43 44 45 45 44 44 44 44 45 45 46 46 46 45 45 44 43 43 44
21 21 22 22 22 23 24 25 25 26 26 27 28 30 31 33 34 36 37 39 41 42 42 42 43 44 45 46 46 45 45 45 45 45 46 46 47 46 45 44 44 44 43
23 23 23 23 24 24 25 25 26 27 27 28 29 30 31 32 34 35 37 38 40 42 42 43 43 44 46 46 46 47 46 46 45 45 46 47 47 48 47 45 44 45 44
24 24 24 24 25 25 25 26 26 27 27 29 29 30 31 31 32 34 36 37 39 41 42 42 44 44 45 47 47 47 47 46 46 46 46 46 47 48 48 47 45 45 45
25 25 24 25 25 26 26 26 26 27 27 28 28 29 29 30 31 32 33 35 37 39 40 41 42 43 44 46 47 47 47 47 47 47 47 48 48 48 48 48 47 46 45
26 26 26 26 26 26 26 26 26 27 27 28 28 28 28 28 29 30 32 34 35 37 38 40 40 42 43 44 45 47 47 48 47 48 48 48 49 48 48 48 48 47 47
27 27 27 27 27 27 27 27 27 27 28 28 27 27 27 27 27 29 30 31 33 35 37 38 39 40 42 43 44 45 46 47 47 47 47 47 48 48 49 48 48 48 48
28 28 28 28 28 28 28 28 28 28 27 27 27 26 26 26 26 27 27 28 30 32 35 36 37 38 41 42 42 43 44 45 46 47 47 46 48 48 48 49 49 48 48
29 29 29 29 29 29 29 29 29 28 27 27 26 26 25 25 25 25 26 27 28 30 32 33 35 36 38 40 41 42 42 44 45 46 47 46 47 48 48 48 48 48 48
29 30 30 30 30 30 30 30 29 28 27 27 27 26 24 24 24 25 25 25 26 27 29 31 33 35 36 38 39 40 41 41 43 44 46 47 47 48 47 48 48 48 48

GEFSMA_500_meanwind_132.txt.gz
Wind_Speed
16 17 17 17 17 17 17 18 18 18 18 18 18 19 19 18 18 18 17 17 18 17 17 16 17 18 17 17 17 17 16 16 15 14 13 13 12 11 10 10 9 8 7
16 16 16 17 17 18 19 19 19 19 19 19 20 20 20 20 20 21 19 19 20 20 19 18 18 18 19 20 20 19 19 18 17 16 16 15 14 13 12 11 10 9 8
16 16 17 18 18 19 20 20 20 20 20 21 21 22 22 22 22 23 22 21 21 21 21 21 21 20 21 22 22 22 21 21 20 19 18 17 16 15 14 13 12 11 10
15 16 17 17 18 18 19 20 20 20 21 21 22 23 23 24 24 25 25 24 23 23 24 23 23 22 22 22 23 24 24 23 22 21 20 19 18 18 16 15 14 13 12
15 16 17 17 18 18 19 20 20 20 20 21 22 22 23 24 25 26 26 26 25 25 25 25 25 24 24 24 25 26 26 25 25 24 23 22 21 20 19 18 17 15 14
15 16 16 17 18 18 18 19 19 20 20 21 21 22 22 24 25 26 27 26 27 27 27 27 26 26 26 26 26 27 27 27 27 27 26 25 23 22 22 21 19 18 17
15 16 16 17 17 18 19 19 20 20 21 22 22 23 23 24 25 25 27 28 29 29 29 30 30 29 29 29 29 29 29 29 29 29 28 27 26 25 24 23 22 21 20
15 15 16 16 17 18 19 20 21 21 21 22 22 23 24 24 26 27 27 28 30 31 31 32 32 32 32 31 31 31 32 32 31 31 30 30 29 28 27 26 25 23 22
14 14 15 16 17 18 19 20 21 21 22 22 23 24 25 25 27 28 28 29 31 32 32 33 33 33 34 34 34 34 34 35 34 33 32 32 32 31 30 29 28 26 25
13 13 14 15 16 17 18 19 20 21 22 22 23 24 25 26 26 28 29 29 30 31 33 34 35 35 34 35 36 36 36 36 37 36 35 34 34 34 33 33 31 30 28
12 13 14 14 15 16 17 18 19 21 22 22 23 24 25 25 26 27 29 30 30 31 32 33 35 36 36 36 36 37 37 38 39 39 38 37 36 36 35 35 34 33 31
12 13 14 15 15 16 17 18 19 20 21 22 23 24 25 26 27 27 28 29 31 32 33 33 35 37 37 37 37 38 39 39 40 40 40 40 39 38 38 37 36 35 35
13 13 14 15 16 16 17 18 19 19 21 22 23 24 25 26 27 28 28 29 31 32 33 34 35 36 37 38 38 39 40 40 41 41 41 42 41 41 41 40 39 38 37
13 14 14 15 16 16 17 17 18 20 21 22 23 24 25 26 28 29 30 30 31 33 34 34 36 37 38 39 40 40 40 41 42 43 43 43 43 43 42 42 42 41 40
14 14 15 16 16 17 17 18 19 19 21 22 23 24 26 27 28 29 30 31 32 33 34 35 36 37 39 40 41 41 42 42 43 45 46 46 45 45 44 44 43 42 42
15 15 16 17 17 17 18 18 19 20 21 22 23 24 25 26 27 29 30 31 33 34 34 36 37 38 39 40 41 42 43 44 45 46 47 48 47 47 46 45 45 44 43
16 16 17 18 18 18 18 19 19 20 21 22 24 25 26 27 27 28 30 31 32 33 34 36 38 39 40 40 41 42 43 44 46 47 48 49 49 48 48 49 48 47 46
17 17 18 19 19 19 19 19 20 21 22 23 24 25 26 27 28 29 30 31 33 34 35 36 38 39 41 41 42 43 44 45 46 48 48 50 51 50 49 50 50 49 48
18 19 20 20 20 20 20 20 21 22 23 24 24 25 26 27 28 29 30 32 33 34 35 36 38 39 41 43 44 44 46 46 46 47 49 50 51 52 51 50 51 51 50
19 20 21 21 22 22 21 22 22 23 24 24 25 26 26 27 28 29 30 30 32 33 34 36 37 39 41 43 45 45 46 48 48 48 49 50 51 52 52 52 51 51 52
20 21 22 23 23 23 23 23 24 25 25 25 26 26 27 27 28 28 29 30 30 32 33 35 36 38 41 43 45 46 47 48 49 49 50 50 50 51 52 52 52 52 52
21 22 23 23 24 24 24 25 25 25 26 26 27 27 27 28 28 28 28 29 30 30 32 33 35 37 39 41 44 45 47 48 49 50 51 51 51 51 52 52 52 52 52
22 23 23 24 25 25 26 26 27 27 27 27 27 28 28 28 29 28 28 29 30 31 32 33 33 35 38 40 42 44 45 46 47 49 50 51 52 52 52 52 53 53 52
23 24 24 25 25 26 27 28 27 27 27 28 28 28 28 28 28 28 28 28 29 30 31 32 33 34 36 38 40 42 43 44 46 47 49 50 51 51 52 52 52 52 51
24 24 25 26 27 28 29 29 28 27 28 29 28 28 28 28 28 27 27 28 28 29 30 31 32 33 33 35 37 40 41 43 44 45 47 48 49 50 51 51 52 51 51
25 25 26 27 27 28 29 29 29 29 29 29 29 28 28 27 27 27 27 27 28 28 29 30 31 32 32 33 35 36 38 40 41 43 45 47 48 49 49 50 51 51 51

GEFSMA_500_meanwind_138.txt.gz
Wind_Speed
14 14 13 13 14 15 15 15 16 16 16 17 18 19 20 19 19 19 19 18 17 17 18 17 17 18 18 18 18 16 16 15 14 13 13 12 12 11 11 10 9 9 8
14 14 13 13 14 15 15 16 16 17 18 18 18 19 21 21 21 21 21 20 20 19 20 20 20 20 20 20 20 19 18 18 17 16 15 14 14 13 12 12 11 10 9
14 14 13 13 13 15 15 16 17 17 18 18 18 19 21 22 22 22 22 22 22 21 21 21 22 21 21 21 21 21 21 20 20 19 18 17 16 15 14 13 13 12 10
13 13 13 13 14 15 16 16 17 17 18 18 18 19 20 21 22 23 24 24 23 23 23 23 23 22 21 22 23 23 23 23 22 22 21 20 18 17 16 15 15 14 13
13 13 14 14 14 15 16 16 17 17 18 18 19 19 20 22 23 23 24 25 25 25 24 25 25 24 23 23 24 24 24 25 24 24 23 22 21 20 19 18 17 16 15
12 13 14 14 15 15 16 16 17 18 18 18 19 19 19 21 23 24 25 26 26 27 27 27 27 26 25 26 26 26 25 26 26 26 25 25 24 23 22 21 20 19 18
12 12 13 13 14 15 16 17 17 17 17 18 19 20 20 20 22 24 25 26 27 28 29 28 28 27 26 26 27 28 28 28 28 28 28 27 27 26 25 24 23 22 21
11 11 12 13 13 14 14 15 16 16 17 18 19 20 20 21 21 23 24 25 27 27 29 29 29 29 29 28 29 29 29 29 30 29 30 30 29 29 28 27 26 25 24
9 10 11 12 13 13 13 14 15 15 16 17 18 19 20 21 21 22 24 26 27 28 29 31 31 31 31 31 31 31 32 31 31 32 32 32 32 32 31 30 29 28 27
8 9 10 11 12 12 13 13 14 15 16 17 18 19 20 21 22 22 24 25 27 28 29 29 31 33 33 32 33 33 34 34 34 33 34 35 35 35 35 34 32 31 31
7 7 8 9 11 11 12 12 13 14 15 16 17 18 20 21 22 23 24 25 27 27 29 30 31 33 34 34 34 34 35 36 37 37 37 37 37 37 37 36 36 35 34
6 7 8 8 10 10 11 11 12 13 14 15 16 18 19 21 22 23 24 25 27 27 28 30 31 32 34 35 36 35 37 38 39 39 39 39 39 39 39 39 38 37 37
6 6 7 8 8 9 9 10 11 12 14 15 16 17 18 19 21 23 24 26 27 28 29 30 31 32 33 35 36 37 38 39 40 41 42 42 42 41 42 41 40 40 39
6 7 8 8 8 9 9 10 11 12 13 14 15 17 18 19 20 21 23 25 26 27 28 30 31 32 33 35 35 37 38 39 41 42 43 44 44 43 44 44 43 42 41
7 7 8 8 9 10 11 12 12 13 13 14 15 16 17 19 20 21 22 24 26 27 29 30 31 32 34 35 36 37 37 39 40 41 44 45 45 45 44 46 46 44 43
7 8 9 9 10 10 11 12 12 13 13 14 15 16 17 18 19 21 22 24 25 27 29 30 31 32 33 35 36 37 38 39 41 41 42 44 46 46 46 45 47 47 45
8 9 10 11 11 12 13 13 13 13 14 15 16 16 17 18 19 21 22 24 25 27 28 30 31 32 34 35 36 37 38 40 41 42 43 44 45 47 47 47 47 48 48
9 10 11 12 12 13 14 15 15 15 15 16 16 17 18 19 20 22 23 24 25 26 28 30 32 33 34 35 36 37 38 40 42 43 43 44 45 47 48 48 49 49 49
11 11 12 13 13 14 15 16 16 16 17 18 18 19 19 20 21 22 23 24 25 27 28 30 32 34 35 36 37 38 38 39 41 43 44 45 46 47 48 49 49 50 50
12 13 13 14 14 15 16 16 17 17 18 19 19 20 20 21 22 22 23 24 25 27 28 29 31 33 35 36 37 38 39 40 41 43 45 46 47 48 49 50 50 51 52
13 14 15 15 16 16 17 18 18 19 19 20 20 21 21 22 22 23 24 24 25 26 28 29 30 31 33 35 36 37 39 40 42 43 45 46 47 48 49 51 52 52 53
15 15 16 17 17 17 18 19 20 20 20 21 21 22 22 23 23 24 24 25 25 26 28 29 30 30 31 33 35 36 38 40 42 43 45 46 47 48 49 51 51 52 53
16 17 18 18 19 19 20 20 21 21 22 22 23 23 24 24 24 25 25 25 26 27 28 29 29 30 31 32 34 35 37 40 41 43 45 46 47 48 49 50 52 53 53
18 19 19 20 20 21 21 22 22 22 23 24 24 25 25 25 26 26 26 26 27 27 28 28 29 30 31 32 33 34 36 38 40 41 44 45 47 48 49 50 51 52 53
20 20 21 22 22 22 22 23 23 24 24 25 26 26 26 27 27 27 27 28 28 28 28 29 29 30 31 32 33 34 35 36 37 39 41 42 44 46 47 49 50 51 52
21 22 22 23 23 24 24 24 25 25 26 26 27 27 27 28 28 28 28 28 28 29 29 29 29 30 31 32 32 33 34 35 36 37 39 40 41 44 45 46 48 49 50

GEFSMA_500_meanwind_144.txt.gz
Wind_Speed
15 15 14 14 14 13 15 16 16 16 17 17 18 19 19 19 18 18 17 17 16 15 15 15 15 14 14 14 13 12 12 12 11 10 10 9 9 8 8 8 7 6 6
13 13 12 13 13 13 14 14 14 15 16 16 16 18 19 19 20 20 19 19 18 18 17 16 16 16 16 16 15 15 14 14 13 13 12 11 11 10 10 9 8 8 7
12 12 12 13 13 13 13 14 13 14 16 16 17 17 19 20 21 21 20 20 20 20 19 19 18 17 17 17 18 18 17 16 16 15 14 14 13 13 12 11 10 10 9
12 12 12 13 13 13 13 14 14 14 14 15 17 18 19 20 21 21 20 21 21 21 21 21 21 20 19 19 19 20 20 20 18 18 17 16 16 15 15 14 13 12 11
11 12 12 12 13 13 13 14 14 15 15 15 16 16 18 19 20 21 20 21 22 22 22 22 22 22 22 21 20 20 21 21 21 21 20 19 19 18 17 17 16 15 14
11 11 11 13 13 13 14 14 14 14 15 15 15 16 16 17 18 19 20 20 21 22 23 22 23 23 22 22 23 22 22 23 23 23 23 22 22 21 20 19 19 18 17
10 10 11 12 12 13 13 13 14 14 14 15 15 15 16 17 18 18 19 20 21 22 22 23 23 23 23 24 24 24 24 24 25 25 25 24 24 24 23 22 21 21 20
9 9 10 10 11 11 12 12 13 13 13 14 14 15 15 16 17 18 19 20 20 22 23 23 23 24 25 25 26 27 26 25 26 26 27 27 26 26 26 25 24 23 22
8 8 8 9 9 10 11 11 12 12 13 14 14 15 15 15 16 18 19 20 20 21 23 23 24 25 26 25 25 27 27 26 26 26 27 28 28 28 28 28 27 26 25
6 7 7 8 9 9 10 10 11 12 12 13 13 14 14 15 15 16 18 19 20 21 22 23 24 24 26 26 26 27 28 27 27 27 27 28 29 30 30 30 30 29 28
5 6 7 8 8 9 10 10 10 11 11 12 12 13 13 14 15 16 17 18 19 20 21 22 24 25 25 26 27 27 28 28 28 28 28 29 30 31 33 33 32 32 31
4 5 6 7 8 8 8 9 9 10 10 11 12 13 13 14 15 16 17 18 19 20 21 22 24 25 26 26 26 27 28 29 30 30 30 30 31 32 33 34 34 34 34
4 5 6 7 7 8 8 8 9 10 11 11 12 12 13 14 16 17 17 19 20 21 22 23 24 25 26 26 27 28 28 29 30 31 32 33 33 33 34 36 36 36 36
5 5 6 7 8 8 8 9 10 10 11 12 12 13 13 14 15 16 17 18 19 20 21 22 24 24 25 26 27 28 28 29 30 31 32 33 34 35 35 36 37 37 38
5 6 7 8 8 9 9 10 10 11 12 12 13 13 14 15 16 17 18 19 20 20 21 22 22 23 25 26 27 28 29 29 30 31 32 33 34 34 36 37 38 38 39
6 7 8 9 9 10 10 10 11 12 13 13 14 14 15 15 16 17 18 19 19 20 21 21 23 23 25 26 27 27 29 30 31 31 32 33 34 35 36 38 39 40 40
7 8 9 9 10 10 11 11 12 13 13 14 14 15 16 16 17 18 18 19 20 20 21 22 23 24 24 25 26 27 28 30 31 32 33 33 34 35 36 37 39 40 41
8 9 9 10 10 11 11 12 13 13 14 15 16 16 17 17 18 18 19 19 20 21 22 22 24 24 25 26 27 28 29 30 31 32 33 34 35 35 36 37 38 39 40
9 10 10 11 11 11 12 13 14 14 15 16 16 17 17 18 18 19 19 20 21 21 22 23 24 25 26 27 27 28 30 31 32 33 34 35 36 36 37 38 38 39 40
10 11 12 12 13 13 13 14 15 15 16 16 17 18 18 19 19 20 20 21 22 22 23 23 24 25 26 26 27 28 29 31 32 33 35 36 37 37 38 38 39 40 41
12 12 13 14 14 14 15 16 16 17 17 18 18 19 19 20 21 21 21 22 22 23 24 24 25 25 26 27 28 28 29 29 30 32 33 35 36 38 39 40 40 41 42
13 14 15 15 16 16 16 17 18 18 19 19 20 20 20 21 22 22 23 23 23 24 24 25 25 25 26 27 28 29 29 29 30 32 33 34 35 36 38 40 41 42 43
15 16 16 17 17 18 18 18 19 19 20 21 21 22 22 22 23 23 24 25 25 25 25 25 25 25 26 27 28 28 29 30 30 32 33 34 36 37 38 39 40 42 44
17 17 18 18 19 19 20 20 21 21 21 22 23 23 24 24 25 25 25 25 25 25 25 25 25 26 26 27 28 29 30 30 31 32 34 34 35 36 37 39 40 41 43
19 19 19 20 20 21 21 22 22 22 23 24 24 25 26 26 26 26 26 26 26 26 26 26 26 27 27 28 29 30 31 31 31 32 33 34 35 36 36 37 39 40 42
20 21 21 22 22 23 23 23 24 24 25 25 26 26 27 27 28 27 27 27 27 28 28 28 27 28 28 29 30 31 31 32 32 32 33 34 34 35 35 36 38 39 40

GEFSMA_500_meanwind_150.txt.gz
Wind_Speed
12 12 12 12 12 11 11 11 12 13 14 15 15 15 15 16 15 15 15 13 14 13 13 12 12 12 11 11 10 10 10 10 9 9 9 9 9 9 8 8 7 6 6
11 11 11 10 10 10 11 11 12 12 14 14 15 14 14 15 16 16 16 16 16 16 15 15 14 13 13 13 13 12 12 12 11 11 11 11 11 10 10 9 9 8 7
10 10 10 10 10 10 11 11 12 12 12 14 15 16 16 15 16 17 17 18 17 17 16 16 16 16 15 14 14 14 14 14 13 13 13 13 13 12 11 11 11 10 9
9 9 10 10 9 10 10 10 11 11 12 13 13 15 15 16 15 17 18 18 18 18 18 18 18 17 17 17 16 16 16 16 16 15 16 15 15 14 14 13 12 12 11
9 9 9 9 9 10 10 10 10 11 11 12 13 14 15 16 16 16 17 17 18 19 19 20 20 19 19 19 19 18 18 18 18 18 18 18 17 17 17 16 15 14 13
8 8 8 9 9 9 9 9 10 10 11 12 12 13 14 15 15 16 16 17 18 19 19 20 20 21 21 20 20 20 20 20 20 20 20 20 21 20 20 19 18 17 16
7 7 7 8 8 8 8 8 9 10 11 11 12 12 12 13 14 15 16 16 17 18 19 20 21 21 22 22 22 22 22 22 22 22 22 22 22 23 23 22 21 20 19
6 6 6 6 6 7 7 8 9 10 10 10 11 12 12 12 13 14 15 16 17 17 18 19 21 22 22 22 22 23 24 24 24 24 24 24 25 25 25 24 24 24 23
5 5 5 5 5 6 6 7 7 8 9 9 10 11 11 12 12 12 13 14 16 17 18 19 20 22 22 23 23 24 25 25 25 25 25 25 25 26 27 27 26 26 26
4 4 4 4 4 4 4 5 6 6 7 7 8 9 10 10 11 12 13 14 15 16 18 19 19 21 22 23 23 24 24 25 25 26 27 27 27 27 28 28 29 29 28
2 2 2 2 2 2 3 4 4 5 6 6 6 8 9 10 10 11 13 13 14 16 16 18 19 20 21 22 22 23 23 24 25 26 27 28 29 29 30 30 30 30 30
2 1 1 1 1 2 2 3 4 4 5 6 6 7 8 9 10 10 12 13 14 15 15 16 18 20 21 22 23 24 24 25 26 26 27 28 30 30 31 31 31 31 32
2 2 1 1 1 2 2 3 3 4 5 6 6 7 8 8 9 10 11 12 13 14 15 16 17 19 20 22 23 24 25 25 26 27 28 29 30 31 32 32 32 33 33
2 2 1 2 2 2 3 3 4 5 5 6 7 7 8 8 9 10 11 12 13 13 14 15 16 17 19 20 22 24 24 25 26 27 27 29 30 31 32 34 34 34 35
2 1 1 1 2 2 3 4 5 5 6 7 7 8 8 9 9 10 11 12 13 13 14 15 16 17 18 19 21 22 23 24 26 27 27 29 30 32 33 34 35 37 37
1 0 1 2 3 4 4 4 5 6 6 7 7 8 8 9 9 10 11 11 13 14 15 15 16 17 17 19 20 22 23 24 26 27 28 29 30 31 33 34 35 36 37
1 1 1 2 3 4 5 5 6 6 7 8 8 9 10 10 11 11 11 12 13 14 15 16 17 17 18 19 20 21 23 24 25 27 28 29 30 30 32 34 36 37 37
2 2 2 3 4 5 5 6 7 7 8 9 9 10 11 11 12 12 12 13 14 14 15 16 17 18 18 19 20 22 23 24 25 26 28 29 30 31 32 33 35 36 37
3 3 4 5 5 6 6 7 8 8 9 10 10 11 12 12 13 14 14 15 15 15 16 17 18 18 19 20 20 21 22 23 25 26 28 29 31 32 33 34 35 36 37
5 5 5 6 7 7 8 8 9 9 10 11 12 12 13 14 14 15 16 16 16 17 18 18 19 19 20 21 22 22 23 24 25 26 27 29 30 31 33 34 35 36 37
7 7 7 7 8 9 9 10 10 11 12 13 13 14 15 15 15 16 17 18 18 19 19 19 20 20 21 22 22 22 23 24 25 26 28 29 30 31 33 34 36 37 38
9 9 9 9 10 10 11 12 12 13 13 14 15 16 16 16 17 18 18 19 20 20 20 21 21 22 22 23 23 23 24 24 25 26 27 29 30 31 32 33 35 37 39
11 11 11 12 12 13 13 14 14 15 15 16 16 17 17 18 18 19 19 20 21 21 21 22 22 23 23 24 24 24 25 25 26 27 27 28 30 31 32 34 35 36 38
13 13 14 14 14 15 15 16 16 17 17 18 18 18 19 19 20 21 21 22 22 23 23 23 24 24 24 25 25 26 26 27 27 28 29 29 31 31 32 34 35 37 38
15 15 16 16 16 17 17 18 18 19 19 20 20 21 21 21 22 22 23 24 24 25 25 25 25 26 26 27 27 28 29 29 29 30 31 31 31 32 33 34 35 35 36
17 18 18 18 19 19 19 20 20 21 21 22 22 22 23 23 24 25 25 25 26 27 27 27 28 28 29 30 30 30 31 31 31 31 32 33 32 32 32 34 35 36 37

GEFSMA_500_meanwind_156.txt.gz
Wind_Speed
12 12 11 11 10 10 9 9 10 10 10 10 11 11 11 11 11 12 12 12 11 11 11 11 11 12 12 11 11 10 9 9 9 8 8 8 8 7 6 6 6 5 5
11 11 11 10 10 9 9 9 9 9 10 10 11 11 11 11 11 12 13 13 13 13 13 13 13 13 14 13 13 12 12 11 11 11 10 10 9 9 8 8 7 7 6
11 10 10 10 10 9 9 9 9 8 9 9 9 10 11 12 12 13 13 14 14 15 14 15 15 15 15 15 15 14 14 13 13 13 12 12 11 11 10 9 9 9 8
11 10 10 10 10 9 8 8 8 8 9 9 9 10 11 11 12 13 14 14 15 16 16 15 15 16 16 16 17 16 16 16 15 15 14 14 14 13 13 12 11 10 10
11 10 10 10 10 9 8 8 8 8 8 9 10 10 11 12 13 13 14 14 15 16 16 16 16 16 17 18 18 18 18 18 17 17 17 16 16 16 15 15 14 13 13
10 10 10 9 9 9 8 8 8 8 8 9 10 10 11 12 13 14 15 15 16 16 16 17 17 18 18 19 20 20 20 19 20 19 19 19 18 18 18 18 17 16 15
9 10 9 9 8 8 8 8 7 7 8 8 9 10 11 12 13 14 14 15 15 16 17 17 18 18 19 20 20 21 21 21 21 20 21 21 21 21 20 20 20 19 19
8 9 8 7 7 7 7 7 6 7 7 7 8 9 10 11 12 13 13 14 15 16 16 16 17 18 18 19 20 21 22 21 22 22 21 22 23 23 23 22 22 22 21
7 7 7 7 6 6 6 6 6 6 7 7 7 8 9 10 11 11 11 13 14 14 15 15 16 17 18 19 20 21 22 22 22 23 23 22 23 23 24 24 25 25 24
6 6 6 6 6 5 6 6 6 6 7 7 7 8 8 8 8 9 10 11 12 13 14 15 15 16 17 18 19 21 22 23 23 24 24 24 24 25 24 25 26 26 26
6 6 6 5 5 5 5 5 6 6 6 7 7 7 8 8 8 9 9 10 11 12 13 14 15 16 17 17 18 19 20 22 23 24 25 25 25 26 26 26 26 26 27
6 6 6 5 5 4 4 4 5 5 5 6 6 7 7 8 8 9 9 10 11 12 13 13 14 15 17 18 19 20 21 22 22 24 25 26 26 27 28 28 28 28 28
7 6 5 5 4 4 4 4 4 4 5 5 6 6 7 8 8 9 10 10 11 12 12 13 14 15 16 18 18 20 21 22 23 23 24 25 27 28 28 29 29 29 30
7 6 5 5 5 5 4 4 4 4 4 5 5 6 7 8 8 9 10 10 10 11 12 12 13 14 16 17 17 18 20 21 22 23 24 25 26 27 29 29 30 31 31
7 7 6 5 4 4 4 4 4 4 5 5 6 7 7 8 8 9 9 10 11 11 12 13 13 14 15 16 17 19 19 20 22 23 24 24 25 27 28 29 30 31 31
7 7 6 5 4 4 4 4 4 5 5 6 6 7 7 8 8 9 9 10 11 11 12 13 13 14 15 16 17 19 20 21 22 23 24 25 26 27 27 28 29 31 32
8 7 6 5 4 4 4 4 5 5 6 6 7 7 8 8 9 9 10 11 11 12 13 13 13 14 15 16 17 18 19 20 21 22 23 25 26 27 27 28 29 30 32
7 7 6 6 5 5 5 5 6 6 7 8 8 8 9 9 10 11 11 12 13 13 14 14 14 15 16 16 17 18 19 20 21 22 23 24 25 27 29 30 30 31 32
8 8 8 7 7 7 7 7 8 8 9 9 9 10 10 11 11 12 13 14 15 15 16 16 16 16 17 18 19 19 20 20 21 22 24 25 26 27 29 30 31 32 32
9 9 9 9 9 9 9 10 10 10 11 11 11 12 12 12 13 14 15 15 16 17 17 18 18 18 19 19 20 20 21 22 22 23 25 26 26 27 28 29 31 32 33
11 11 11 11 11 11 12 12 12 13 13 13 14 14 14 15 15 16 16 17 17 18 18 19 19 20 21 21 21 22 23 24 24 24 25 26 27 28 29 30 31 32 33
12 13 13 13 13 14 14 14 15 15 15 16 16 16 17 17 18 18 18 19 19 19 20 20 21 21 22 23 23 24 24 25 26 26 26 27 28 29 30 30 31 32 33
14 14 14 15 15 16 16 16 16 17 17 18 18 19 19 19 20 20 21 21 21 21 22 22 22 23 24 25 25 26 26 27 27 28 28 29 30 30 31 32 33 33 34
15 16 16 16 17 18 18 18 19 19 20 20 21 21 21 22 22 23 23 23 23 24 25 25 25 26 26 27 27 27 28 29 29 30 30 30 31 32 33 34 34 35 35
17 17 18 18 19 19 20 20 21 21 22 22 23 23 23 24 24 25 25 25 26 26 27 28 28 28 29 29 29 29 30 30 31 32 32 32 32 33 34 35 36 36 36
18 19 19 20 20 21 22 22 23 23 24 24 25 25 25 26 26 27 27 27 27 28 29 30 30 30 31 31 32 32 32 32 33 33 34 34 34 35 34 35 37 38 37

GEFSMA_500_meanwind_162.txt.gz
Wind_Speed
10 11 11 10 10 9 9 9 9 9 9 10 10 11 11 11 10 11 11 11 11 11 10 11 11 12 11 12 12 12 12 11 10 9 9 8 8 8 7 7 6 5 5
11 11 10 11 10 10 10 9 9 9 10 10 10 11 11 11 11 12 12 12 12 12 12 13 13 13 13 14 13 14 14 13 12 11 10 10 10 10 9 9 8 7 7
11 11 11 11 10 10 9 9 9 9 9 10 10 10 10 11 12 11 12 13 13 13 14 14 13 14 14 15 15 15 15 15 14 14 13 12 12 11 11 11 10 10 9
12 11 11 11 11 10 10 9 9 9 9 10 10 10 10 11 12 13 13 13 14 14 15 14 14 14 15 16 16 16 16 16 16 16 16 15 15 14 13 13 13 12 12
12 11 11 11 11 10 10 9 9 9 9 9 10 10 11 11 12 13 14 14 14 15 15 14 15 15 15 16 17 17 17 17 17 17 18 18 17 17 16 15 15 14 14
12 11 11 11 11 10 9 9 9 9 8 8 9 10 11 11 12 13 14 14 14 15 15 15 16 17 17 16 17 19 18 18 18 17 18 19 19 19 18 17 16 16 16
11 10 10 11 11 10 10 10 9 9 8 8 8 9 9 10 11 11 12 13 14 15 15 16 17 17 17 17 17 18 18 18 18 19 19 19 20 20 20 20 20 19 18
11 10 10 11 10 10 9 9 9 8 8 8 8 8 8 9 9 10 11 13 13 14 15 16 16 17 17 17 17 18 19 19 20 20 19 20 20 22 22 22 22 22 21
11 10 9 10 10 10 9 8 8 8 8 8 8 8 8 8 8 9 10 10 11 11 12 13 15 16 17 17 17 17 18 19 19 20 21 21 21 21 22 22 23 23 23
10 10 9 9 9 9 8 8 8 8 8 8 8 8 8 8 8 9 9 9 10 10 11 12 14 15 15 16 16 17 17 18 20 21 21 23 22 22 23 24 23 24 24
10 9 9 9 8 8 8 7 7 7 7 7 7 7 8 8 9 9 9 9 10 10 11 12 13 14 15 15 16 17 17 18 18 20 21 22 23 23 24 25 25 25 25
9 8 8 8 8 8 7 7 6 6 6 6 7 7 8 8 8 8 8 9 10 11 11 11 12 13 14 15 16 16 16 17 18 18 20 21 22 23 23 25 26 25 25
9 8 8 8 7 7 6 6 6 6 6 6 7 6 7 7 8 8 9 9 10 10 11 11 12 13 13 14 15 15 16 17 17 18 19 20 21 23 23 24 25 25 25
9 9 8 7 7 6 6 6 7 6 6 7 6 6 7 7 7 7 8 9 10 10 10 11 12 12 13 13 14 14 15 16 17 18 18 20 21 22 23 24 24 26 27
10 10 9 8 7 6 6 7 7 7 7 7 6 7 6 6 7 7 8 8 9 10 10 11 11 12 12 13 13 14 14 15 15 17 18 19 20 21 22 23 23 24 25
10 9 9 8 7 6 6 7 7 7 6 7 6 6 6 6 7 7 7 8 9 9 10 10 11 11 12 13 13 14 14 15 15 16 18 19 20 21 22 22 23 24 25
10 10 9 8 8 7 7 6 6 6 6 6 6 6 6 7 7 7 8 9 9 10 11 11 11 12 12 13 14 14 14 15 16 17 18 19 20 21 21 23 24 25 25
11 10 10 9 8 8 7 7 7 7 6 7 7 7 7 8 8 8 9 10 11 11 12 12 13 13 13 14 14 15 16 17 17 18 19 20 20 21 22 23 23 24 25
11 11 10 10 10 9 8 8 8 8 8 8 9 9 9 9 10 10 11 11 12 13 13 14 14 14 15 15 16 16 17 18 19 19 19 20 21 21 22 23 24 25 26
12 11 11 11 10 9 9 10 9 9 10 10 10 11 11 12 12 12 13 13 14 14 15 15 16 16 16 17 17 18 18 19 20 21 21 21 22 22 23 24 25 26 27
13 12 12 11 11 11 11 11 11 11 11 12 13 13 13 14 14 15 15 15 16 16 17 17 17 18 18 19 19 20 20 21 22 23 23 24 24 24 25 26 26 27 28
13 12 12 12 12 12 12 12 13 13 13 14 15 15 16 16 16 17 17 18 18 19 19 19 20 20 21 21 21 22 22 23 24 24 25 26 26 27 27 28 28 29 29
13 14 14 14 14 14 14 14 14 15 15 16 17 17 18 18 18 19 19 20 20 21 21 22 22 23 23 24 24 24 25 25 26 27 28 28 29 29 29 30 30 30 31
15 15 15 15 15 15 16 16 16 17 17 18 18 19 20 20 20 21 21 22 23 23 24 24 24 25 26 26 27 28 28 29 29 30 30 30 31 31 31 32 32 32 32
16 17 17 17 17 18 18 18 18 19 19 20 20 21 22 22 23 23 24 24 25 26 26 27 27 28 28 29 30 31 31 31 31 32 32 32 32 33 34 34 34 35 35
18 18 18 19 19 19 19 20 21 21 22 22 23 23 24 25 25 26 26 27 28 28 29 29 30 31 31 32 33 33 34 34 34 34 35 35 36 36 36 37 37 37 37

GEFSMA_500_meanwind_168.txt.gz
Wind_Speed
12 11 11 10 10 10 9 8 8 8 8 8 8 8 8 8 8 9 10 9 9 9 9 9 8 9 8 8 9 9 9 9 9 9 9 8 7 7 7 7 6 5 5
12 12 11 11 11 10 10 9 9 9 9 9 9 9 9 9 9 9 9 9 10 10 10 10 10 9 9 10 10 10 10 10 9 10 10 10 10 9 8 9 8 7 7
13 12 11 10 10 10 10 10 10 9 9 9 9 9 9 9 10 10 10 10 10 10 11 11 11 11 11 11 11 11 12 12 12 11 11 12 12 11 10 9 9 9 9
13 13 12 11 11 10 10 10 9 8 8 8 9 9 9 9 10 10 10 11 11 11 11 11 11 12 11 12 13 13 14 14 13 13 12 12 13 13 13 12 11 10 10
13 12 12 11 10 10 10 10 9 8 9 9 8 8 9 9 9 9 10 10 10 10 10 11 12 12 13 13 13 14 15 14 14 14 14 13 13 13 13 13 14 13 13
13 12 11 11 10 10 10 10 10 9 9 8 8 8 8 9 9 9 9 9 10 10 11 12 12 12 13 13 13 14 14 14 14 14 15 15 15 14 14 14 14 15 15
12 11 11 10 10 9 9 9 9 9 8 7 7 7 8 8 9 9 9 9 9 10 10 11 12 12 12 13 13 13 13 13 14 15 15 15 16 16 15 15 15 15 16
12 11 11 10 9 8 8 8 8 8 8 8 7 7 8 8 8 8 8 9 9 10 10 11 11 11 12 12 12 12 12 12 13 14 13 14 15 15 16 17 17 17 17
11 10 10 10 9 8 8 8 7 7 7 7 7 8 8 7 8 8 8 8 9 9 10 10 11 11 11 11 11 12 12 13 14 14 14 14 16 16 17 19 19 19 19
11 10 10 9 9 9 8 8 8 7 7 7 7 7 7 7 7 8 8 8 9 9 10 9 9 10 10 11 11 11 12 12 12 13 14 15 16 17 18 18 19 20 21
11 10 9 8 8 7 7 7 7 7 7 7 6 6 7 7 7 8 8 8 9 9 9 9 9 9 10 10 10 11 11 12 12 13 13 14 15 16 17 18 18 20 21
10 9 9 8 7 6 6 6 6 6 6 5 6 6 7 7 7 8 8 8 9 9 9 10 9 10 10 10 10 11 11 11 12 13 13 14 15 15 15 17 18 19 19
9 9 9 8 7 6 6 5 5 6 6 5 6 6 7 8 8 9 9 9 10 10 10 10 10 10 10 10 10 11 11 11 12 13 14 14 15 16 16 16 17 18 18
9 9 8 8 7 7 6 5 5 6 5 6 6 7 7 8 9 9 9 10 10 10 10 10 10 10 10 10 10 10 11 11 12 12 13 13 14 15 15 16 17 17 18
9 9 9 8 7 6 6 6 5 6 6 6 7 7 8 9 8 8 9 9 9 9 9 10 10 11 11 11 11 11 11 11 12 12 13 13 14 15 15 16 16 18 19
10 9 8 7 7 7 7 6 6 6 6 7 7 8 8 8 8 8 8 9 9 9 10 10 10 11 11 12 12 12 12 12 13 13 14 14 15 15 16 16 16 17 18
10 10 9 8 8 8 8 7 7 7 7 7 8 9 9 9 8 9 9 10 10 10 11 11 11 11 12 13 13 13 13 14 14 15 15 16 16 16 17 17 18 19 19
11 10 10 9 8 8 8 8 8 7 8 8 9 9 9 9 9 10 10 11 11 12 12 12 13 13 13 14 14 14 15 15 15 16 16 16 17 17 18 19 19 20 21
11 11 10 10 9 9 9 9 8 8 8 9 9 10 10 10 10 11 12 12 13 13 14 14 14 15 15 15 16 16 16 16 16 17 17 18 19 19 19 20 21 21 22
11 11 11 11 10 10 10 10 10 10 10 10 11 11 11 12 12 12 13 13 14 14 15 16 16 17 17 18 18 18 18 18 19 19 19 19 20 20 21 21 22 23 23
11 10 11 11 10 11 11 11 11 11 11 11 11 11 12 13 13 14 14 15 16 16 17 17 18 19 19 20 21 21 21 21 21 22 22 22 22 23 23 24 24 25 25
10 10 11 11 11 11 11 12 12 12 12 12 12 13 14 15 15 15 16 17 18 18 19 20 20 21 22 22 22 23 23 23 24 24 25 25 25 25 25 26 27 27 28
11 11 11 11 12 13 13 14 14 14 14 15 15 16 16 16 17 18 19 19 20 21 22 22 23 23 23 24 24 24 25 26 26 27 27 27 28 28 28 28 29 30 30
12 13 13 13 14 15 16 16 16 16 17 18 18 18 18 19 19 20 21 22 23 24 24 24 24 25 25 26 26 27 28 28 28 29 30 30 30 30 31 32 32 33 34
13 13 14 14 15 15 16 17 17 18 19 19 20 20 21 21 21 22 23 24 25 25 26 26 26 26 27 28 29 30 30 31 31 31 33 33 33 33 34 35 35 36 36
14 15 15 16 16 16 16 17 18 19 20 20 21 22 22 23 24 25 26 26 27 27 27 28 28 29 30 31 32 33 33 34 34 34 35 36 36 37 36 37 38 38 38

GEFSMA_500_meanwind_174.txt.gz
Wind_Speed
10 10 10 9 9 9 8 7 7 6 5 5 5 5 6 7 5 5 5 5 5 6 6 6 6 6 6 5 6 5 5 5 6 6 6 6 7 7 7 6 6 6 6
10 10 10 10 9 9 8 7 7 7 7 6 6 5 6 6 7 7 6 6 7 7 7 6 6 7 7 7 7 7 7 7 7 7 7 8 8 8 8 8 8 7 7
11 11 11 10 10 9 8 8 8 7 7 6 6 6 5 6 6 7 7 6 7 7 7 7 7 7 8 8 7 8 8 8 9 9 8 9 9 9 10 10 10 9 9
12 12 11 11 10 9 8 8 7 7 7 6 6 6 5 5 5 6 7 6 6 7 7 7 7 8 8 8 8 9 9 9 9 10 10 10 10 10 10 10 11 11 11
12 12 12 11 10 9 8 8 8 7 7 7 6 6 6 6 6 6 7 7 7 8 8 8 8 8 9 9 10 10 10 10 10 10 11 12 12 12 12 12 12 12 13
13 12 11 11 11 10 9 9 8 7 7 7 7 7 6 6 6 6 6 7 7 8 8 8 8 8 9 9 9 10 10 11 11 11 11 12 13 13 13 14 14 14 14
12 13 12 12 11 11 10 9 8 8 7 7 7 6 6 6 6 6 7 7 7 7 8 8 9 8 8 8 9 9 10 10 11 11 12 12 13 13 14 14 15 16 16
12 12 12 12 12 11 10 9 9 8 8 8 7 7 7 6 6 6 6 6 7 7 7 7 8 8 9 9 9 9 9 10 11 11 12 12 12 13 14 15 16 17 17
13 12 12 12 11 11 10 10 9 8 8 7 7 7 7 7 6 6 5 6 6 6 6 6 7 7 8 9 9 10 10 10 10 11 11 11 11 12 12 14 15 16 17
12 12 12 12 12 11 10 9 9 8 7 6 6 6 6 6 6 5 5 5 5 6 6 7 7 7 7 8 8 8 9 10 10 10 10 11 11 12 13 14 14 15 16
12 13 12 12 12 10 10 9 8 7 6 6 6 6 6 5 5 5 4 4 4 5 5 6 7 6 7 7 7 8 9 9 9 10 11 11 12 12 13 13 13 14 15
11 12 12 12 12 11 10 9 8 7 6 6 5 5 5 5 5 5 4 4 5 5 5 6 6 6 6 7 7 8 8 8 9 9 10 11 12 13 13 13 14 14 15
11 11 11 11 12 11 10 9 8 8 7 6 5 5 5 5 5 5 5 5 5 5 6 6 6 6 6 7 7 8 8 8 8 9 10 10 11 12 13 13 14 15 16
12 12 11 11 11 11 10 9 8 8 7 7 6 6 6 5 5 5 5 6 6 6 6 5 5 6 7 7 8 8 8 9 9 9 10 11 11 12 13 14 15 15 16
13 12 12 12 11 11 9 8 8 8 8 7 7 6 6 6 6 5 5 6 6 6 6 6 6 6 7 8 8 9 9 9 10 10 11 12 12 13 14 15 16 17 17
13 12 13 12 12 11 10 9 9 8 8 7 7 7 6 6 6 6 6 6 5 6 6 6 7 8 8 8 9 9 10 10 10 11 11 12 13 14 14 15 16 17 18
13 12 13 13 12 12 11 11 10 9 9 8 8 8 8 7 7 7 7 7 7 7 7 7 8 9 9 9 10 10 10 11 11 12 12 13 13 14 15 16 17 17 18
13 13 13 13 13 12 11 11 11 11 11 10 9 9 9 8 8 8 8 8 8 8 9 9 10 10 10 11 11 12 12 13 13 13 14 14 15 16 16 17 19 19 20
14 13 14 14 13 13 12 12 12 11 11 11 10 10 10 10 9 9 9 10 10 10 10 10 11 12 12 13 13 13 14 15 15 16 16 17 18 18 19 20 21 21 22
14 14 15 14 14 14 13 13 12 12 11 11 11 11 11 11 11 11 11 11 12 11 12 12 13 14 14 14 15 15 16 17 17 18 19 20 21 22 22 22 23 24 25
15 15 15 14 15 15 14 14 13 13 13 13 12 12 12 12 12 13 13 13 13 13 14 14 15 15 16 16 17 18 19 19 20 21 22 23 23 24 25 25 26 27 28
16 15 14 14 14 14 14 14 14 14 13 13 14 14 14 15 15 15 15 14 14 15 16 16 17 17 18 19 20 20 21 22 22 23 24 25 25 26 26 27 28 29 29
14 14 15 14 15 15 14 14 14 14 14 14 15 15 16 16 17 17 16 16 17 18 19 19 20 20 21 21 22 23 23 24 25 26 27 27 28 29 30 30 31 31 32
15 15 15 15 15 15 14 14 14 14 15 15 16 16 17 18 18 18 18 19 19 20 21 22 22 23 23 24 25 25 26 27 28 29 30 30 31 32 32 33 34 34 35
16 16 16 16 16 15 15 16 16 16 17 18 18 18 18 19 19 20 21 22 22 23 23 24 24 25 26 27 28 29 30 31 31 32 34 33 33 34 34 35 36 36 37
16 16 16 16 16 16 17 17 17 18 19 20 20 19 20 20 22 22 23 24 24 25 25 26 27 28 29 30 31 32 33 34 35 35 36 36 36 37 36 37 38 39 39

GEFSMA_500_meanwind_180.txt.gz
Wind_Speed
7 7 7 6 6 5 5 5 5 5 5 5 5 4 4 4 4 4 5 5 5 5 5 5 4 4 5 4 5 5 5 5 5 5 5 5 5 6 6 6 6 5 5
8 8 8 7 7 7 6 6 6 6 6 5 5 5 5 5 5 5 5 6 6 6 6 6 6 5 5 6 6 6 6 6 6 7 7 7 7 7 7 8 7 7 6
9 9 9 9 8 8 7 7 6 6 6 6 6 5 5 5 5 5 5 6 6 6 7 7 7 6 6 7 7 7 7 7 8 8 8 9 8 8 8 9 9 9 8
10 11 11 10 9 9 8 7 7 6 6 6 5 5 5 5 5 5 5 5 6 7 7 7 7 7 7 8 8 8 8 8 8 8 9 9 10 10 10 10 10 10 10
11 11 11 11 11 10 9 8 7 7 6 6 5 5 5 5 5 5 6 6 6 7 7 8 8 9 9 9 10 10 9 9 9 9 9 10 10 10 11 11 11 11 11
11 12 12 12 11 10 10 10 9 8 7 6 6 6 6 6 6 6 6 6 7 7 8 9 9 9 9 10 10 10 10 10 9 9 9 9 9 10 11 12 12 12 12
12 12 12 12 11 11 10 10 9 9 8 8 7 7 7 7 7 7 7 7 7 8 8 9 9 9 10 10 10 10 10 10 10 10 10 10 10 10 11 11 13 14 14
13 12 12 12 11 11 11 10 10 9 9 9 9 8 8 8 8 7 7 7 8 7 8 8 8 9 10 10 9 9 9 10 10 11 11 11 12 11 11 12 12 13 14
13 14 13 12 12 12 11 11 10 9 9 9 9 9 9 8 8 8 8 8 8 8 8 8 8 9 9 9 9 9 9 10 10 11 11 11 12 12 12 11 11 12 13
14 14 13 13 12 12 11 11 10 10 10 9 9 9 9 8 8 8 8 8 8 8 8 9 9 9 8 9 9 9 9 10 10 11 11 11 11 11 11 11 11 11 12
13 14 14 14 13 12 12 11 11 10 10 9 9 8 8 8 8 8 8 9 8 8 8 8 8 8 8 8 8 9 9 10 10 10 11 11 12 12 12 13 13 13 13
14 14 14 14 13 12 12 12 11 11 10 10 9 9 9 9 8 8 8 8 8 8 8 8 8 8 8 8 9 9 9 9 10 10 11 11 12 12 12 13 13 13 14
13 14 14 14 13 13 13 12 11 10 10 10 9 9 9 9 9 9 9 9 9 9 8 8 8 8 8 9 9 9 10 10 10 10 11 11 11 12 12 12 13 14 15
13 13 13 13 13 13 12 12 11 10 10 10 9 9 9 9 9 9 9 9 9 9 9 9 9 9 9 9 10 10 11 11 11 11 12 12 12 13 14 14 14 15 16
13 13 13 13 13 13 12 12 12 11 10 10 10 10 9 9 9 10 10 10 9 9 9 9 10 9 10 10 11 11 12 12 12 13 13 13 13 14 15 16 17 17 17
13 13 13 14 14 13 13 12 12 11 11 11 11 11 11 11 11 11 11 11 10 10 10 10 11 11 11 12 12 12 12 12 13 13 14 14 15 15 16 17 17 18 19
14 14 15 14 14 13 13 12 12 12 12 12 11 11 12 12 12 12 12 11 11 11 11 11 12 12 12 12 12 13 13 13 14 14 15 15 16 17 17 18 19 20 21
15 15 15 14 14 14 14 14 13 13 12 13 13 13 13 13 13 13 13 13 12 12 12 13 13 13 13 14 14 14 15 15 16 16 16 17 18 18 19 20 20 21 22
15 15 15 15 15 15 14 14 14 13 13 13 14 14 14 14 14 14 14 13 13 13 14 14 15 15 15 15 15 16 16 17 18 18 19 20 20 21 21 22 23 24 24
15 15 16 16 16 16 16 15 15 15 15 15 15 15 15 15 15 15 14 14 15 15 16 16 17 17 18 18 18 18 18 19 20 20 21 22 22 23 24 24 25 26 27
16 16 16 16 16 16 16 16 16 16 16 15 16 16 16 16 15 15 15 15 16 17 17 18 19 19 20 20 20 20 21 21 22 23 24 24 25 25 26 27 28 28 29
17 16 17 16 16 16 16 16 16 16 16 16 16 16 16 16 16 17 17 17 18 18 19 20 21 21 22 22 22 22 23 24 25 25 26 27 28 29 29 30 30 31 32
17 17 17 17 16 16 16 16 17 17 17 17 18 18 18 18 18 18 19 19 19 20 21 22 23 23 23 24 24 25 26 27 27 29 29 30 31 31 32 33 34 35 35
18 18 17 16 16 16 16 17 18 19 19 19 19 19 19 20 20 20 20 21 21 22 23 24 24 24 24 25 26 27 28 29 30 31 32 32 33 34 35 36 37 38 39
17 17 17 17 17 18 18 19 19 19 19 20 20 20 20 21 21 21 22 22 23 24 25 25 26 27 28 29 29 30 31 31 32 34 35 35 35 36 37 39 40 41 42
18 18 18 18 19 19 19 20 20 20 21 21 22 22 22 23 23 23 24 25 25 26 27 27 28 29 30 31 32 33 34 34 35 36 37 38 38 40 40 40 42 43 44